NIEUW!!! Volg onze weer- en natuurfoto's op Instagram @ weerstationmaaseik.be

WS Maaseik 1 Meer informatie WS Maaseik 1


WS Maaseik 2 Meer informatie WS Maaseik 2


Regen radar Meer informatie rain snow radar


Bezoek onze andere website:

Vorige versie
weerstation Maaseik


Bezoek ook eens deze sites:

Weerstation Geleen



Het weer levert geen direct gevaar op.    Er zijn geen waarschuwingen afgegeven.

15 daagse weersverwachting Leeds (GB)

  • Overzicht
  • Per uur
  • 15 dagen
  • Extra
  • Vergelijk
  • Kaarten
  • Dagkaart
  • Meer »
  • Info
  • Statistieken
  • Directe link
    Temp 6h Neerslag Wind  
 08:12     16:24    Daglengte: 8:12 Morgen
00:00
0.8 mm
3
06:00
5.0 mm
4
12:00
11.1 mm
6
18:00
10°
13.4 mm
8
 08:10     16:25    Daglengte: 8:15 Woensdag 20 Jan
00:00
10°
16.7 mm
7
06:00
12.2 mm
5
12:00
18.2 mm
5
18:00
12.9 mm
6
 08:09     16:27    Daglengte: 8:18 Donderdag 21 Jan
00:00
33.4 mm
7
06:00
57.0 mm
10
12:00
 
10
18:00
75.7 mm
7
Locatie info
Region: England
Latitude: 53.7948°N
Longitude: -1.5465°E
50 masl
Postcode: LS1 5
Temp/Neerslag /Baro Onweer/DauwpuntSneeuw
    Temp Baro 1h Neerslag Dauwpunt Wind UV BewolkingSneeuw  
 08:13     16:22    Daglengte: 8:09 Vandaag
23:00
Voelt als: 3.9°
1005.6 hPa 0.8 mm
82%
5.3°
3
Windvlaag: 2.5 m/s
91%
 08:12     16:24    Daglengte: 8:12 Morgen
00:00
Voelt als: 4.2°
1004.5 hPa
82%
5.3°
3
Windvlaag: 2.4 m/s
91%
01:00
Voelt als: 4.5°
1003.1 hPa 0.8 mm
82%
5.5°
3
Windvlaag: 1.7 m/s
90%
02:00
Voelt als: 4.7°
1002.2 hPa 0.9 mm
82%
5.6°
4
Windvlaag: 1.3 m/s
90%
03:00
Voelt als: 4.7°
1001.3 hPa 0.9 mm
77%
5.7°
3
Windvlaag: 1.4 m/s
88%
04:00
Voelt als: 4.7°
1000.4 hPa 0.7 mm
82%
5.4°
3
Windvlaag: 1.5 m/s
91%
05:00
Voelt als: 4.4°
999.7 hPa 0.7 mm
82%
5.3°
3
Windvlaag: 2.2 m/s
90%
06:00
Voelt als: 4.5°
999.2 hPa 1.0 mm
82%
5.4°
4
Windvlaag: 2.4 m/s
90%
07:00
Voelt als: 4.7°
998.9 hPa 1.5 mm
82%
5.3°
3
Windvlaag: 1.9 m/s
91%
08:00
Voelt als: 4.5°
998.6 hPa 1.5 mm
82%
5.5°
4
Windvlaag: 2 m/s
90%
09:00
Voelt als: 4.7°
998.4 hPa 1.5 mm
82%
5.9°
4
Windvlaag: 2.7 m/s
90%
10:00
Voelt als: 5.2°
997.9 hPa 1.8 mm
82%
6.2°
4
Windvlaag: 4.1 m/s
91%
11:00
Voelt als: 5.4°
997.4 hPa 2.6 mm
82%
7.1°
5
Windvlaag: 4.5 m/s
90%
12:00
Voelt als: 5.6°
996.7 hPa 2.1 mm
82%
7.2°
6
Windvlaag: 4.5 m/s
90%
13:00
Voelt als: 5.7°
995.8 hPa 1.5 mm
82%
7.0°
7
Windvlaag: 5.6 m/s
91%
14:00
Voelt als: 6.0°
994.6 hPa 1.9 mm
82%
7.0°
6
Windvlaag: 5.7 m/s
90%
15:00
Voelt als: 6.2°
993.5 hPa 1.9 mm
82%
7.2°
6
Windvlaag: 6 m/s
88%
16:00
Voelt als: 6.2°
992.4 hPa 2.9 mm
82%
7.3°
7
Windvlaag: 6 m/s
91%
17:00
10°
Voelt als: 6.2°
991.4 hPa 2.9 mm
82%
7.6°
7
Windvlaag: 6.1 m/s
91%
18:00
10°
Voelt als: 6.5°
990.5 hPa 2.3 mm
82%
7.7°
8
Windvlaag: 5.8 m/s
90%
19:00
10°
Voelt als: 6.4°
989.8 hPa 1.6 mm
82%
7.6°
7
Windvlaag: 6.1 m/s
91%
20:00
10°
Voelt als: 6.5°
989.3 hPa 3.2 mm
82%
7.9°
7
Windvlaag: 5.7 m/s
91%
21:00
10°
Voelt als: 6.5°
988.2 hPa 3.4 mm
82%
8.0°
7
Windvlaag: 5.5 m/s
91%
22:00
10°
Voelt als: 6.7°
987.4 hPa 2.8 mm
82%
8.3°
8
Windvlaag: 5.7 m/s
91%
23:00
10°
Voelt als: 6.8°
986.8 hPa 2.8 mm
82%
8.3°
7
Windvlaag: 5.6 m/s
90%
 08:10     16:25    Daglengte: 8:15 Woensdag 20 Jan
00:00
10°
986.0 hPa 2.9 mm
82%
8.3°
7
Windvlaag: 6 m/s
90%
01:00
10°
985.5 hPa 3.1 mm
82%
8.3°
7
Windvlaag: 5.9 m/s
90%
02:00
10°
985.0 hPa 2.9 mm
40%
8.3°
7
Windvlaag: 5.8 m/s
91%
03:00
Voelt als: 6.3°
984.6 hPa 3.2 mm
68%
8.0°
6
Windvlaag: 5.7 m/s
91%
04:00
Voelt als: 6.7°
984.0 hPa 3.0 mm
76%
8.1°
5
Windvlaag: 4.6 m/s
89%
05:00
Voelt als: 6.5°
983.5 hPa
77%
7.5°
5
Windvlaag: 3.8 m/s
89%
06:00
Voelt als: 6.5°
983.2 hPa
79%
7.5°
5
Windvlaag: 3.6 m/s
91%
07:00
Voelt als: 6.1°
983.0 hPa 2.6 mm
82%
7.2°
5
Windvlaag: 3.2 m/s
91%
08:00
Voelt als: 5.9°
982.7 hPa 2.6 mm
82%
6.9°
5
Windvlaag: 3.3 m/s
91%
09:00
Voelt als: 5.9°
982.5 hPa 2.4 mm
82%
7.1°
4
Windvlaag: 3.1 m/s
91%
10:00
Voelt als: 5.9°
981.9 hPa 3.9 mm
82%
6.7°
4
Windvlaag: 2.9 m/s
91%
11:00
Voelt als: 6.4°
981.2 hPa 3.7 mm
82%
7.6°
5
Windvlaag: 2.8 m/s
91%
12:00
Voelt als: 6.5°
980.4 hPa 3.1 mm
82%
7.9°
5
Windvlaag: 3.1 m/s
91%
13:00
Voelt als: 6.5°
979.4 hPa 4.6 mm
82%
7.8°
4
Windvlaag: 3.4 m/s
91%
14:00
Voelt als: 6.2°
978.4 hPa 3.4 mm
82%
7.5°
5
Windvlaag: 3.6 m/s
91%
15:00
Voelt als: 6.7°
976.9 hPa 4.9 mm
100%
8.0°
5
Windvlaag: 0.8 m/s
100%
16:00
Voelt als: 6.3°
976.4 hPa
95%
7.7°
6
Windvlaag: 0.9 m/s
99%1 cm
17:00
Voelt als: 5.7°
976.0 hPa
69%
7.2°
6
Windvlaag: 1.3 m/s
96%3 cm
18:00
Voelt als: 5.3°
975.8 hPa
96%
7.0°
6
Windvlaag: 1.3 m/s
100%6 cm
19:00
Voelt als: 5.1°
975.2 hPa
100%
7.0°
6
Windvlaag: 0.6 m/s
100%7 cm
20:00
Voelt als: 4.4°
974.4 hPa
100%
6.3°
7
Windvlaag: 0.2 m/s
97%8 cm
21:00
Voelt als: 4.0°
973.5 hPa
100%
6.1°
7
Windvlaag: 0.3 m/s
87%11 cm
22:00
Voelt als: 3.7°
972.4 hPa 10.6 mm
100%
6.1°
7
Windvlaag: 1.8 m/s
88%12 cm
23:00
Voelt als: 3.4°
971.3 hPa 11.3 mm
100%
6.0°
7
Windvlaag: 2 m/s
88%14 cm
 08:09     16:27    Daglengte: 8:18 Donderdag 21 Jan
00:00
Voelt als: -0.6°
971.5 hPa 11.5 mm
100%
3.3°
7
Windvlaag: 2.5 m/s
88%16 cm
01:00
Voelt als: -2.2°
971.1 hPa 10.9 mm
100%
1.8°
7
Windvlaag: 4 m/s
86%17 cm
02:00
Voelt als: -2.7°
970.8 hPa
97%
1.7°
8
Windvlaag: 4.7 m/s
83%17 cm
03:00
Voelt als: -3.3°
971.3 hPa 11.2 mm
100%
1.1°
9
Windvlaag: 5.3 m/s
90%18 cm
04:00
Voelt als: -3.9°
972.0 hPa 11.6 mm
100%
1.0°
10
Windvlaag: 5.7 m/s
88%18 cm
05:00
Voelt als: -4.2°
973.2 hPa 11.8 mm
100%
0.9°
11
Windvlaag: 5.2 m/s
84%18 cm
06:00
Voelt als: -3.3°
974.5 hPa 11.5 mm
100%
0.3°
10
Windvlaag: 4.7 m/s
73%18 cm
07:00
Voelt als: -3.0°
975.6 hPa
28%
0.5°
10
Windvlaag: 4.4 m/s
42%18 cm
08:00
Voelt als: -2.7°
976.6 hPa
22%
-0.6°
9
Windvlaag: 4.1 m/s
32%18 cm
09:00
Voelt als: -3.1°
977.5 hPa
34%
-0.0°
9
Windvlaag: 4.2 m/s
32%18 cm
10:00
Voelt als: -2.5°
978.0 hPa
71%
1.3°
9
Windvlaag: 4.3 m/s
79%18 cm
11:00
Voelt als: -2.0°
978.5 hPa
22%
1.3°
9
Windvlaag: 3.8 m/s
75%18 cm
12:00
Voelt als: -1.7°
978.6 hPa
21%
1.2°
10
Windvlaag: 4 m/s
43%17 cm
13:00
Voelt als: -1.9°
977.7 hPa
34%
1.0°
10
Windvlaag: 14 m/s
54%16 cm
14:00
Voelt als: -2.1°
977.9 hPa 18.9 mm
91%
1.0°
9
Windvlaag: 13.2 m/s
68%16 cm
15:00
Voelt als: -2.0°
978.1 hPa 19.1 mm
100%
0.8°
8
Windvlaag: 12.9 m/s
69%15 cm
16:00
Voelt als: -2.1°
978.4 hPa 18.9 mm
100%
0.7°
8
Windvlaag: 13.9 m/s
67%15 cm
17:00
Voelt als: -2.3°
978.7 hPa 18.9 mm
100%
0.1°
7
Windvlaag: 12.6 m/s
72%15 cm
18:00
Voelt als: -2.1°
979.0 hPa
100%
0.5°
7
Windvlaag: 1.8 m/s
78%15 cm
19:00
Voelt als: -2.4°
980.0 hPa 56.4 mm
100%
0.3°
8
Windvlaag: 11.9 m/s
68%15 cm
20:00
Voelt als: -2.6°
980.5 hPa 56.4 mm
100%
0.2°
8
Windvlaag: 11.8 m/s
59%15 cm
21:00
Voelt als: -2.9°
980.9 hPa 56.4 mm
100%
-0.2°
8
Windvlaag: 12.7 m/s
54%15 cm
22:00
Voelt als: -2.6°
981.3 hPa 56.4 mm
100%
0.2°
8
Windvlaag: 12.8 m/s
51%15 cm
Temp/Neerslag /Baro Onweer/DauwpuntSneeuw
    Temp Baro Neerslag Dauwpunt Wind BewolkingSneeuw  
 08:12     16:24    Daglengte: 8:12 Morgen
00:00
Voelt als: 4.2°
1004.5 hPa 0.8 mm 5.3°
3
91%
03:00
Voelt als: 4.7°
1001.3 hPa 2.5 mm 5.7°
3
88%
06:00
Voelt als: 4.5°
999.2 hPa 2.4 mm 5.4°
4
90%
09:00
Voelt als: 4.7°
998.4 hPa 4.5 mm 5.9°
4
90%
12:00
Voelt als: 5.6°
996.7 hPa 6.6 mm 7.2°
6
90%
15:00
Voelt als: 6.2°
993.5 hPa 5.4 mm 7.2°
6
88%
18:00
10°
Voelt als: 6.5°
990.5 hPa 8.1 mm 7.7°
8
90%
21:00
10°
Voelt als: 6.5°
988.2 hPa 8.2 mm 8.0°
7
91%
 08:10     16:25    Daglengte: 8:15 Woensdag 20 Jan
00:00
10°
986.0 hPa 8.5 mm 8.3°
7
90%
03:00
Voelt als: 6.3°
984.6 hPa 9.2 mm 8.0°
6
91%
06:00
Voelt als: 6.5°
983.2 hPa 3.0 mm 7.5°
5
91%
09:00
Voelt als: 5.9°
982.5 hPa 7.5 mm 7.1°
4
91%
12:00
Voelt als: 6.5°
980.4 hPa 10.7 mm 7.9°
5
91%
15:00
Voelt als: 6.7°
976.9 hPa 12.9 mm 8.0°
5
100%
18:00
Voelt als: 5.3°
975.8 hPa   7.0°
6
100%6 cm
21:00
Voelt als: 4.0°
973.5 hPa   6.1°
7
87%11 cm
 08:09     16:27    Daglengte: 8:18 Donderdag 21 Jan
00:00
Voelt als: -0.6°
971.5 hPa 33.4 mm 3.3°
7
88%16 cm
03:00
Voelt als: -3.3°
971.3 hPa 22.1 mm 1.1°
9
90%18 cm
06:00
Voelt als: -3.3°
974.5 hPa 34.9 mm 0.3°
10
73%18 cm
09:00
Voelt als: -3.1°
977.5 hPa   -0.0°
9
32%18 cm
12:00
Voelt als: -1.7°
978.6 hPa   1.2°
10
43%17 cm
15:00
Voelt als: -2.0°
978.1 hPa 37.9 mm 0.8°
8
69%15 cm
18:00
Voelt als: -2.1°
979.0 hPa 37.7 mm 0.5°
7
78%15 cm
21:00
Voelt als: -2.9°
980.9 hPa 169.1 mm -0.2°
8
54%15 cm
 08:08     16:29    Daglengte: 8:21 Vrijdag 22 Jan
00:00
Voelt als: -2.7°
982.1 hPa 169.1 mm 0.0°
8
37%15 cm
03:00
Voelt als: -2.6°
985.4 hPa 72.8 mm -0.3°
8
19%
06:00
Voelt als: -2.6°
987.0 hPa 72.8 mm -0.4°
7
12%
09:00
Voelt als: -1.3°
988.6 hPa 72.8 mm -0.3°
8
9%
12:00
Voelt als: 0.3°
990.1 hPa 72.8 mm -0.3°
8
6%
15:00
Voelt als: -1.0°
990.9 hPa 72.9 mm -0.8°
6
3%
18:00
Voelt als: -2.3°
991.7 hPa 72.9 mm -1.4°
5
0%
21:00
Voelt als: -2.8°
992.1 hPa 72.9 mm -1.2°
4
26% warningclass
 08:06     16:31    Daglengte: 8:25 Zaterdag 23 Jan
00:00
Voelt als: -3.1°
992.6 hPa 73.0 mm -1.2°
3
51% warningclass
03:00
-0°
Voelt als: -4.0°
992.1 hPa 73.2 mm -1.8°
3
28% warningclass
06:00
-1°
Voelt als: -4.7°
991.6 hPa 73.5 mm -2.6°
3
4% warningclass
09:00
Voelt als: -3.0°
992.2 hPa 73.5 mm -1.9°
4
22% warningclass
12:00
Voelt als: -0.8°
992.8 hPa 73.5 mm -1.0°
5
39%
15:00
Voelt als: -2.5°
994.0 hPa 73.5 mm -1.3°
5
24%
18:00
Voelt als: -4.4°
995.3 hPa 73.5 mm -1.7°
4
10% warningclass
21:00
Voelt als: -4.4°
996.9 hPa 73.5 mm -1.8°
5
5% warningclass
 08:05     16:33    Daglengte: 8:28 Zondag 24 Jan
00:00
Voelt als: -4.4°
998.5 hPa 73.5 mm -2.0°
5
1% warningclass
03:00
-0°
Voelt als: -4.4°
998.7 hPa 73.7 mm -2.0°
4
44% warningclass
06:00
-0°
Voelt als: -4.5°
998.9 hPa 77.4 mm -2.1°
4
88% warningclass
09:00
Voelt als: -2.8°
998.7 hPa 77.6 mm -1.3°
4
69% warningclass
12:00
Voelt als: -0.8°
998.5 hPa 77.6 mm -0.6°
4
49%
15:00
Voelt als: -1.8°
999.5 hPa 77.6 mm -0.4°
4
33%
18:00
Voelt als: -3.0°
1000.4 hPa 77.6 mm -0.5°
4
17% warningclass
21:00
Voelt als: -3.6°
1002.6 hPa 77.6 mm -0.9°
4
9% warningclass
 08:04     16:35    Daglengte: 8:31 Maandag 25 Jan
00:00
Voelt als: -4.2°
1004.8 hPa 77.6 mm -1.3°
5
1% warningclass
03:00
Voelt als: -3.5°
1005.6 hPa 77.6 mm -0.6°
5
23% warningclass
06:00
Voelt als: -2.8°
1006.3 hPa 77.6 mm -0.0°
5
46%
09:00
Voelt als: -0.8°
1007.9 hPa 77.6 mm 0.9°
5
35%
12:00
Voelt als: 1.4°
1009.5 hPa 77.6 mm 1.8°
5
25%
15:00
Voelt als: -0.1°
1009.3 hPa 77.6 mm 1.1°
4
58%
18:00
Voelt als: -1.3°
1009.0 hPa 77.6 mm 0.3°
3
92%
21:00
Voelt als: -2.6°
1006.5 hPa   0.3°
4
91%
 08:02     16:37    Daglengte: 8:35 Dinsdag 26 Jan
00:00
Voelt als: -3.7°
1003.8 hPa 155.2 mm 0.4°
5
91% warningclass
06:00
Voelt als: 2.1°
999.0 hPa 158.7 mm 4.0°
6
64%
12:00
Voelt als: 2.5°
999.3 hPa 167.1 mm 3.7°
4
91%
18:00
Voelt als: 3.5°
992.9 hPa 167.2 mm 4.6°
4
83%
 08:00     16:39    Daglengte: 8:39 Woensdag 27 Jan
00:00
Voelt als: 4.8°
991.6 hPa 167.3 mm 7.2°
9
92%
06:00
Voelt als: 3.1°
992.5 hPa 169.2 mm 5.0°
9
91%
12:00
Voelt als: 3.8°
998.3 hPa 170.4 mm 3.5°
10
8%
18:00
Voelt als: 1.5°
1002.3 hPa 170.4 mm 3.4°
5
80%
 07:59     16:41    Daglengte: 8:42 Donderdag 28 Jan
00:00
Voelt als: 1.1°
1003.1 hPa 170.4 mm 2.8°
3
92%
06:00
Voelt als: 0.2°
1005.6 hPa 170.5 mm 2.7°
5
91%
12:00
Voelt als: 1.2°
1010.8 hPa 170.6 mm -1.9°
4
1%
18:00
Voelt als: 4.3°
997.4 hPa 2.4 mm 3.6°
1
92%
 07:57     16:43    Daglengte: 8:46 Vrijdag 29 Jan
00:00
Voelt als: 4.0°
998.2 hPa 2.2 mm 2.8°
1
85%
06:00
Voelt als: 2.1°
999.2 hPa 1.1 mm 2.0°
2
83%
12:00
Voelt als: 3.8°
1000.6 hPa 1.0 mm 2.6°
2
84%
18:00
Voelt als: 2.2°
1000.5 hPa 1.7 mm 2.4°
2
78%
 07:56     16:45    Daglengte: 8:49 Zaterdag 30 Jan
00:00
Voelt als: 1.4°
999.7 hPa 2.2 mm 2.4°
3
76%
06:00
Voelt als: 1.2°
998.1 hPa 1.2 mm 2.2°
4
79%
12:00
Voelt als: 3.3°
998.1 hPa 0.8 mm 2.8°
3
73%
18:00
Voelt als: 2.8°
997.6 hPa 0.6 mm 2.3°
2
84%
 07:54     16:46    Daglengte: 8:52 Zondag 31 Jan
00:00
Voelt als: 2.8°
998.4 hPa 0.8 mm 1.9°
1
80%
06:00
Voelt als: 2.5°
997.9 hPa 1.5 mm 2.0°
1
85%
12:00
Voelt als: 2.3°
1000.2 hPa 1.1 mm 1.6°
3
80%
18:00
Voelt als: 1.3°
1001.0 hPa 0.4 mm 0.9°
2
77%
 07:52     16:48    Daglengte: 8:56 Maandag 01 Feb
00:00
Voelt als: 0.2°
1001.6 hPa 0.9 mm 0.5°
3
66%
06:00
Voelt als: -0.4°
1000.8 hPa 0.5 mm 0.5°
3
63%
12:00
Voelt als: 2.0°
1002.0 hPa 0.4 mm 1.6°
4
60%
18:00
Voelt als: 1.3°
1002.9 hPa 0.3 mm 0.9°
2
63%
 07:50     16:50    Daglengte: 9:00 Dinsdag 02 Feb
00:00
Voelt als: 0.1°
1004.2 hPa 0.6 mm 0.2°
2
63%
06:00
Voelt als: -0.1°
1004.2 hPa 0.5 mm 0.2°
2
55%
12:00
Voelt als: 2.6°
1005.5 hPa 0.6 mm 1.2°
3
59%
18:00
Voelt als: 1.4°
1006.2 hPa 0.5 mm 0.8°
2
61%
  CAPE Lifted Index Hail Supercell Tornado SRH 3km CL BTM PRES CL TOP PRES Swiss DWD icon SMHI TS
 08:13     16:22    Daglengte: 8:09 Vandaag
23:00 0 J/kg 3.9 K 0 % 0 % 0 % 0 m²/s² 0 0 4.38 61
 08:12     16:24    Daglengte: 8:12 Morgen
00:00 0 J/kg 4.6 K 0 % 0 % 0 % 0 m²/s² 0 0 5.26 61
01:00 0 J/kg 5.2 K 0 % 0 % 0 % 0 m²/s² 0 0 5.74 3
02:00 0 J/kg 5.3 K 0 % 0 % 0 % 0 m²/s² 0 0 5.75 3
03:00 0 J/kg 6.1 K 0 % 0 % 0 % 0 m²/s² 0 0 6.52 3
04:00 0 J/kg 6.8 K 0 % 0 % 0 % 0 m²/s² 0 0 7.13 61
05:00 0 J/kg 6.9 K 0 % 0 % 0 % 0 m²/s² 0 0 7.23 61
06:00 0 J/kg 7.4 K 0 % 0 % 0 % 0 m²/s² 0 0 7.73 61
07:00 0 J/kg 7.3 K 0 % 0 % 0 % 0 m²/s² 0 0 7.57 61
08:00 1 J/kg 6.1 K 0 % 0 % 0 % 0 m²/s² 0 0 6.37 61
09:00 1 J/kg 6.1 K 0 % 0 % 0 % 0 m²/s² 0 0 6.37 61
10:00 1 J/kg 5.7 K 0 % 0 % 0 % 0 m²/s² 0 0 6.03 61
11:00 0 J/kg 4.9 K 0 % 0 % 0 % 0 m²/s² 0 0 5.56 61
12:00 0 J/kg 4.4 K 0 % 0 % 0 % 0 m²/s² 0 0 4.76 61
13:00 0 J/kg 4.6 K 0 % 0 % 0 % 0 m²/s² 0 0 4.84 61
14:00 0 J/kg 3.5 K 0 % 0 % 0 % 0 m²/s² 0 0 3.74 61
15:00 0 J/kg 3.3 K 0 % 0 % 0 % 0 m²/s² 0 0 3.54 61
16:00 0 J/kg 2.3 K 0 % 0 % 0 % 0 m²/s² 0 0 2.66 61
17:00 0 J/kg 1.3 K 0 % 0 % 0 % 0 m²/s² 0 0 1.78 61
18:00 0 J/kg 1.5 K 0 % 0 % 0 % 0 m²/s² 0 0 2.22 61
19:00 0 J/kg 1.4 K 0 % 0 % 0 % 0 m²/s² 0 0 2.21 61
20:00 0 J/kg 1.1 K 0 % 0 % 0 % 0 m²/s² 0 0 1.22 61
21:00 0 J/kg 1.4 K 0 % 0 % 0 % 0 m²/s² 0 0 1.64 61
22:00 0 J/kg 1.7 K 0 % 0 % 0 % 0 m²/s² 0 0 2.15 61
23:00 1 J/kg 1.9 K 0 % 0 % 0 % 0 m²/s² 0 0 2.2 80
 08:10     16:25    Daglengte: 8:15 Woensdag 20 Jan
00:00 0 J/kg 0.6 K 0 % 0 % 0 % 0 m²/s² 0 0 1.05 61
01:00 1 J/kg 0.9 K 0 % 0 % 0 % 0 m²/s² 0 0 1.98 3
02:00 9 J/kg 1.2 K 0 % 0 % 0 % 0 m²/s² 0 0 1.92 3
03:00 13 J/kg 1.5 K 0 % 0 % 0 % 0 m²/s² 0 0 1.95 3
04:00 1 J/kg 2.5 K 0 % 0 % 0 % 0 m²/s² 0 0 2.92 3
05:00 0 J/kg 3.2 K 0 % 0 % 0 % 0 m²/s² 0 0 3.62 3
06:00 2 J/kg 3.5 K 0 % 0 % 0 % 0 m²/s² 0 0 4.16 3
07:00 2 J/kg 3.8 K 0 % 0 % 0 % 0 m²/s² 0 0 4.43 61
08:00 2 J/kg 4.3 K 0 % 0 % 0 % 0 m²/s² 0 0 4.96 61
09:00 0 J/kg 4.4 K 0 % 0 % 0 % 0 m²/s² 0 0 4.82 61
10:00 0 J/kg 5.0 K 0 % 0 % 0 % 0 m²/s² 0 0 5.33 63
11:00 0 J/kg 4.9 K 0 % 0 % 0 % 0 m²/s² 0 0 5.23 63
12:00 0 J/kg 5.4 K 0 % 0 % 0 % 0 m²/s² 0 0 5.67 61
13:00 1 J/kg 5.7 K 0 % 0 % 0 % 0 m²/s² 0 0 6 61
14:00 4 J/kg 5.7 K 0 % 0 % 0 % 0 m²/s² 0 0 5.94 61
15:00 4 J/kg 5.8 K 0 % 0 % 0 % 0 m²/s² 0 0 6.1 61
16:00 2 J/kg 6.2 K 0 % 0 % 0 % 0 m²/s² 0 0 6.44 3
17:00 0 J/kg 5.2 K 0 % 0 % 0 % 0 m²/s² 0 0 5.41 3
18:00 1 J/kg 4.8 K 0 % 0 % 0 % 0 m²/s² 0 0 5.55 3
19:00 1 J/kg 4.2 K 0 % 0 % 0 % 0 m²/s² 0 0 4.74 3
20:00 1 J/kg 4.1 K 0 % 0 % 0 % 0 m²/s² 0 0 4.34 61
21:00 1 J/kg 4.4 K 0 % 0 % 0 % 0 m²/s² 0 0 4.67 63
22:00 0 J/kg 3.1 K 0 % 0 % 0 % 0 m²/s² 0 0 3.37 63
23:00 0 J/kg 3.9 K 0 % 0 % 0 % 0 m²/s² 0 0 4.17 63
 08:09     16:27    Daglengte: 8:18 Donderdag 21 Jan
00:00 0 J/kg 5.3 K 0 % 0 % 0 % 0 m²/s² 0 0 5.63 61
01:00 0 J/kg 6.2 K 0 % 0 % 0 % 0 m²/s² 0 0 6.65 61
02:00 0 J/kg 6.8 K 0 % 0 % 0 % 0 m²/s² 0 0 7.22 3
03:00 0 J/kg 6.4 K 0 % 0 % 0 % 0 m²/s² 0 0 6.94 61
04:00 0 J/kg 5.1 K 0 % 0 % 0 % 0 m²/s² 0 0 5.73 61
05:00 0 J/kg 4.9 K 0 % 0 % 0 % 0 m²/s² 0 0 5.47 61
06:00 0 J/kg 4.5 K 0 % 0 % 0 % 0 m²/s² 0 0 5.31 61
07:00 0 J/kg 4.4 K 0 % 0 % 0 % 0 m²/s² 0 0 6.56 2
08:00 0 J/kg 4.6 K 0 % 0 % 0 % 0 m²/s² 0 0 7.93 3
09:00 0 J/kg 3.9 K 0 % 0 % 0 % 0 m²/s² 0 0 7.23 3
10:00 0 J/kg 2.6 K 0 % 0 % 0 % 0 m²/s² 0 0 6.41 3
11:00 4 J/kg 2.6 K 0 % 0 % 0 % 0 m²/s² 0 0 5.15 3
12:00 9 J/kg 1.5 K 0 % 0 % 0 % 0 m²/s² 0 0 3.24 2
13:00 0 J/kg 1.4 K 0 % 0 % 0 % 0 m²/s² 0 0 3.02 3
14:00 20 J/kg 0.5 K 0 % 0 % 0 % 0 m²/s² 0 0 3.05 61
15:00 25 J/kg 0.2 K 0 % 0 % 0 % 0 m²/s² 0 0 3.8 61
16:00 2 J/kg 0.6 K 0 % 0 % 0 % 0 m²/s² 0 0 1.44 61
17:00 0 J/kg -0.3 K 0 % 0 % 0 % 0 m²/s² 0 0 2.04 61
18:00 0 J/kg -0.2 K 0 % 0 % 0 % 0 m²/s² 0 0 2.14 61
19:00 70 J/kg -0.6 K 0 % 0 % 0 % 0 m²/s² 0 0 1.89
20:00 0 J/kg 1.0 K 0 % 0 % 0 % 0 m²/s² 0 0 2.47
21:00 0 J/kg 0.7 K 0 % 0 % 0 % 0 m²/s² 0 0 4.39
22:00 0 J/kg -0.2 K 0 % 0 % 0 % 0 m²/s² 0 0 1.87
Temp Baro Wind Neerslag
  EWN Forecast EWN WRFDA DWD ICON FMI HIRLAM MET Norway GFS
 08:12     16:24    Daglengte: 8:12 Morgen
00:00 6.7° 1004.5 hPa 3.5 m/s 0.8 mm 6.7° 1002.4 hPa 2.3 m/s 9.0 mm 6.6° 1004.7 hPa 2.1 m/s -0.6 mm 8.2° 1004.1 hPa 5.0 m/s 0.0 mm 7.3° 1004.6 hPa 4.8 m/s 7.1° 1004.4 hPa 3.0 m/s
03:00 7.1° 1001.3 hPa 3.4 m/s 2.5 mm 7.6° 999.0 hPa 3.9 m/s 9.5 mm 7.0° 1002.0 hPa 2.0 m/s 0.1 mm 8.7° 1000.9 hPa 5.5 m/s 0.0 mm 7.5° 1001.5 hPa 3.7 m/s 7.5° 1000.7 hPa 3.4 m/s
06:00 7.0° 999.2 hPa 3.7 m/s 2.4 mm 7.7° 997.2 hPa 3.8 m/s 10.2 mm 6.9° 999.4 hPa 1.5 m/s 1.6 mm 8.4° 999.2 hPa 5.5 m/s 0.0 mm 7.1° 999.9 hPa 3.8 m/s 7.6° 998.6 hPa 3.1 m/s
09:00 7.3° 998.4 hPa 3.9 m/s 4.5 mm 7.1° 995.9 hPa 2.6 m/s 13.4 mm 6.8° 998.6 hPa 1.3 m/s 4.1 mm 8.2° 998.4 hPa 7.4 m/s 0.0 mm 7.2° 999.5 hPa 3.4 m/s 7.4° 997.4 hPa 2.5 m/s
12:00 8.7° 996.7 hPa 5.8 m/s 6.6 mm 8.2° 994.4 hPa 4.8 m/s 20.8 mm 9.0° 996.2 hPa 5.7 m/s 4.5 mm 8.4° 997.4 hPa 5.9 m/s 0.0 mm 8.8° 997.8 hPa 5.4 m/s 9.9° 996.0 hPa 7.0 m/s
15:00 9.2° 993.5 hPa 6.2 m/s 5.4 mm 9.6° 990.0 hPa 7.2 m/s 26.7 mm 9.5° 993.0 hPa 6.1 m/s 2.9 mm 9.5° 994.6 hPa 3.8 m/s 0.0 mm 9.0° 994.6 hPa 6.0 m/s 9.7° 991.6 hPa 6.4 m/s
18:00 9.8° 990.5 hPa 7.7 m/s 8.1 mm 10.0° 987.8 hPa 7.4 m/s 31.0 mm 9.7° 990.4 hPa 6.2 m/s 2.2 mm 10.0° 992.1 hPa 8.0 m/s 0.0 mm 9.8° 990.8 hPa 7.7 m/s 10.5° 989.4 hPa 7.2 m/s
21:00 9.7° 988.2 hPa 7.0 m/s 8.2 mm 9.8° 985.1 hPa 7.2 m/s 32.0 mm 9.5° 988.3 hPa 4.4 m/s 2.3 mm 10.2° 989.3 hPa 7.7 m/s 0.0 mm 9.6° 988.5 hPa 7.0 m/s 10.5° 987.0 hPa 6.9 m/s
 08:10     16:25    Daglengte: 8:15 Woensdag 20 Jan
00:00 10.0° 986.0 hPa 7.2 m/s 8.5 mm 10.2° 983.4 hPa 7.4 m/s 34.9 mm 10.3° 986.2 hPa 5.9 m/s 0.7 mm 10.5° 986.1 hPa 6.7 m/s 0.0 mm 9.8° 987.0 hPa 7.3 m/s 10.6° 985.3 hPa 6.3 m/s
03:00 9.4° 984.6 hPa 6.4 m/s 9.2 mm 9.6° 982.2 hPa 4.5 m/s 36.8 mm 10.0° 985.5 hPa 4.8 m/s 0.0 mm 5.9° 984.9 hPa 5.7 m/s 0.0 mm 9.7° 984.9 hPa 7.3 m/s 10.4° 984.0 hPa 5.4 m/s
06:00 9.1° 983.2 hPa 4.8 m/s 3.0 mm 7.2° 982.8 hPa 2.0 m/s 40.7 mm 9.6° 984.9 hPa 2.7 m/s 0.1 mm 5.4° 984.9 hPa 2.9 m/s 0.0 mm 9.6° 983.1 hPa 6.8 m/s 9.7° 983.8 hPa 3.5 m/s
09:00 8.4° 982.5 hPa 4.3 m/s 7.5 mm 5.2° 982.2 hPa 3.0 m/s 42.3 mm 9.0° 982.9 hPa 1.8 m/s 2.0 mm 4.0° 984.9 hPa 3.1 m/s 0.0 mm 9.1° 982.6 hPa 5.2 m/s 8.3° 983.2 hPa 0.7 m/s
12:00 9.1° 980.4 hPa 5.0 m/s 10.7 mm 4.2° 981.7 hPa 3.0 m/s 48.1 mm 10.3° 979.7 hPa 4.3 m/s 7.6 mm 3.6° 984.4 hPa 1.8 m/s 0.0 mm 10.1° 980.5 hPa 5.9 m/s 7.3° 982.2 hPa 2.0 m/s
15:00 9.5° 976.9 hPa 5.5 m/s 12.9 mm 3.1° 978.6 hPa 4.5 m/s 62.1 mm 10.5° 977.4 hPa 4.2 m/s 1.4 mm 10.4° 977.0 hPa 6.8 m/s 7.0° 978.4 hPa 2.0 m/s
18:00 8.4° 975.8 hPa 5.9 m/s 0.0 mm 0.4° 975.5 hPa 4.8 m/s 88.1 mm 10.4° 975.6 hPa 4.6 m/s 0.1 mm 9.8° 975.8 hPa 6.1 m/s 7.1° 976.1 hPa 1.6 m/s
21:00 7.7° 973.5 hPa 6.8 m/s 0.0 mm 0.3° 971.6 hPa 6.8 m/s 113.7 mm 9.1° 971.6 hPa 5.1 m/s 4.8 mm 9.1° 973.3 hPa 7.4 m/s 6.6° 972.3 hPa 0.6 m/s
 08:09     16:27    Daglengte: 8:18 Donderdag 21 Jan
00:00 4.1° 971.5 hPa 6.9 m/s 33.4 mm 0.5° 966.4 hPa 11.0 m/s 141.2 mm 4.7° 968.1 hPa 5.8 m/s 8.8 mm 4.8° 971.3 hPa 6.3 m/s 7.1° 968.0 hPa 1.0 m/s
03:00 2.7° 971.3 hPa 9.3 m/s 22.1 mm 1.3° 968.0 hPa 14.0 m/s 161.4 mm 3.5° 968.7 hPa 7.0 m/s 0.5 mm 2.7° 970.6 hPa 8.9 m/s 2.2° 968.1 hPa 11.1 m/s
06:00 2.8° 974.5 hPa 10.1 m/s 34.9 mm 2.0° 971.5 hPa 11.2 m/s 168.5 mm 3.4° 970.5 hPa 9.9 m/s 1.5 mm 2.8° 974.4 hPa 10.1 m/s 3.6° 971.2 hPa 11.4 m/s
09:00 2.8° 977.5 hPa 9.2 m/s 0.0 mm 0.8° 973.4 hPa 9.8 m/s 168.5 mm 3.3° 973.1 hPa 8.5 m/s 0.0 mm 2.8° 977.8 hPa 9.4 m/s 3.6° 974.6 hPa 10.6 m/s
12:00 3.9° 978.6 hPa 9.5 m/s 0.0 mm 2.1° 976.6 hPa 8.6 m/s 168.5 mm 4.5° 974.0 hPa 9.5 m/s 0.0 mm 3.9° 978.8 hPa 10.1 m/s 3.3° 979.8 hPa 8.1 m/s
15:00 3.4° 978.1 hPa 8.1 m/s 37.9 mm 2.2° 977.8 hPa 7.0 m/s 168.7 mm 3.6° 975.1 hPa 6.8 m/s 0.7 mm 3.5° 979.2 hPa 9.2 m/s 4.4° 981.1 hPa 5.9 m/s
18:00 3.0° 979.0 hPa 7.0 m/s 37.7 mm 1.6° 979.3 hPa 5.0 m/s 169.1 mm 3.3° 976.3 hPa 5.8 m/s 0.3 mm 3.1° 979.7 hPa 8.4 m/s 3.5° 982.5 hPa 5.8 m/s
21:00 2.5° 980.9 hPa 7.8 m/s 169.1 mm -0.5° 980.6 hPa 4.6 m/s 169.1 mm 3.0° 981.0 hPa 8.3 m/s 3.3° 983.9 hPa 5.4 m/s
 08:08     16:29    Daglengte: 8:21 Vrijdag 22 Jan
00:00 2.7° 982.1 hPa 7.9 m/s 169.1 mm 1.1° 981.7 hPa 5.9 m/s 169.1 mm 3.0° 982.2 hPa 8.2 m/s 3.0° 985.7 hPa 5.3 m/s
03:00 2.8° 985.4 hPa 7.6 m/s 72.8 mm 2.8° 985.2 hPa 7.9 m/s 2.6° 988.0 hPa 4.7 m/s 72.8 mm
06:00 2.7° 987.0 hPa 7.4 m/s 72.8 mm 2.7° 986.7 hPa 7.7 m/s 2.2° 990.1 hPa 3.7 m/s 72.8 mm
09:00 3.8° 988.6 hPa 7.6 m/s 72.8 mm 3.9° 988.2 hPa 7.9 m/s 2.3° 992.1 hPa 3.3 m/s 72.8 mm
12:00 5.1° 990.1 hPa 7.9 m/s 72.8 mm 5.1° 989.8 hPa 8.2 m/s 4.7° 993.6 hPa 4.5 m/s 72.8 mm
15:00 3.6° 990.9 hPa 6.5 m/s 72.9 mm 3.5° 990.6 hPa 6.8 m/s 4.5° 994.1 hPa 3.4 m/s 72.9 mm
18:00 2.1° 991.7 hPa 5.0 m/s 72.9 mm 2.0° 991.4 hPa 5.3 m/s 2.7° 994.9 hPa 1.7 m/s 72.9 mm
21:00 1.1° 992.1 hPa 3.9 m/s 72.9 mm 1.1° 992.0 hPa 4.2 m/s 2.1° 994.1 hPa 1.1 m/s 72.9 mm
 08:06     16:31    Daglengte: 8:25 Zaterdag 23 Jan
00:00 0.2° 992.6 hPa 2.9 m/s 73.0 mm 0.1° 992.5 hPa 3.1 m/s 1.7° 993.6 hPa 0.9 m/s 73.0 mm
03:00 -0.4° 992.1 hPa 3.0 m/s 73.2 mm -0.6° 992.0 hPa 3.0 m/s 0.7° 993.1 hPa 2.0 m/s 73.2 mm
06:00 -1.0° 991.6 hPa 3.0 m/s 73.5 mm -1.2° 991.5 hPa 3.0 m/s 0.6° 992.6 hPa 2.8 m/s 73.5 mm
09:00 1.0° 992.2 hPa 3.9 m/s 73.5 mm 1.1° 992.1 hPa 4.0 m/s 0.3° 993.6 hPa 2.6 m/s 73.5 mm
12:00 3.2° 992.8 hPa 4.8 m/s 73.5 mm 3.3° 992.7 hPa 5.0 m/s 2.4° 994.1 hPa 2.3 m/s 73.5 mm
15:00 1.7° 994.0 hPa 4.6 m/s 73.5 mm 1.6° 994.0 hPa 4.7 m/s 2.6° 994.6 hPa 3.3 m/s 73.5 mm
18:00 0.1° 995.3 hPa 4.3 m/s 73.5 mm 0.0° 995.3 hPa 4.4 m/s 1.2° 995.4 hPa 3.0 m/s 73.5 mm
21:00 0.2° 996.9 hPa 4.5 m/s 73.5 mm 0.1° 997.0 hPa 4.7 m/s 0.8° 995.8 hPa 2.9 m/s 73.5 mm
 08:05     16:33    Daglengte: 8:28 Zondag 24 Jan
00:00 0.3° 998.5 hPa 4.8 m/s 73.5 mm 0.3° 998.8 hPa 5.0 m/s 0.4° 995.5 hPa 2.8 m/s 73.5 mm
03:00 -0.1° 998.7 hPa 4.1 m/s 73.7 mm -0.1° 999.0 hPa 4.4 m/s 0.5° 995.0 hPa 1.2 m/s 73.7 mm
06:00 -0.4° 998.9 hPa 3.5 m/s 77.4 mm -0.5° 999.2 hPa 3.8 m/s 0.3° 995.1 hPa 0.7 m/s 77.4 mm
09:00 1.2° 998.7 hPa 3.9 m/s 77.6 mm 1.2° 998.9 hPa 4.0 m/s 0.3° 996.5 hPa 2.5 m/s 77.6 mm
12:00 2.9° 998.5 hPa 4.2 m/s 77.6 mm 3.0° 998.6 hPa 4.3 m/s 1.8° 997.9 hPa 2.8 m/s 77.6 mm
15:00 1.9° 999.5 hPa 3.9 m/s 77.6 mm 1.9° 999.5 hPa 4.0 m/s 2.0° 999.1 hPa 2.7 m/s 77.6 mm
18:00 0.8° 1000.4 hPa 3.5 m/s 77.6 mm 0.8° 1000.4 hPa 3.6 m/s 0.6° 1000.5 hPa 2.9 m/s 77.6 mm
21:00 0.6° 1002.6 hPa 4.1 m/s 77.6 mm 0.7° 1002.6 hPa 4.2 m/s 0.2° 1002.3 hPa 2.8 m/s 77.6 mm
 08:04     16:35    Daglengte: 8:31 Maandag 25 Jan
00:00 0.4° 1004.8 hPa 4.7 m/s 77.6 mm 0.5° 1004.9 hPa 4.9 m/s -0.2° 1003.5 hPa 2.6 m/s 77.6 mm
03:00 1.2° 1005.6 hPa 5.1 m/s 77.6 mm 1.2° 1005.5 hPa 5.2 m/s 0.8° 1005.7 hPa 3.8 m/s 77.6 mm
06:00 1.8° 1006.3 hPa 5.4 m/s 77.6 mm 1.9° 1006.2 hPa 5.5 m/s 0.9° 1007.2 hPa 3.9 m/s 77.6 mm
09:00 3.4° 1007.9 hPa 5.2 m/s 77.6 mm 3.6° 1007.8 hPa 5.4 m/s 0.9° 1009.3 hPa 3.5 m/s 77.6 mm
12:00 5.1° 1009.5 hPa 5.3 m/s 77.6 mm 5.3° 1009.4 hPa 5.3 m/s 3.3° 1010.1 hPa 5.1 m/s 77.6 mm
15:00 3.4° 1009.3 hPa 4.0 m/s 77.6 mm 3.5° 1009.1 hPa 4.0 m/s 3.2° 1010.9 hPa 4.3 m/s 77.6 mm
18:00 1.6° 1009.0 hPa 2.6 m/s 77.6 mm 1.6° 1008.8 hPa 2.6 m/s 1.3° 1011.7 hPa 2.7 m/s 77.6 mm
21:00 1.2° 1006.5 hPa 3.7 m/s 77.6 mm 1.2° 1006.0 hPa 3.8 m/s 1.2° 1012.1 hPa 2.9 m/s 77.6 mm
 08:02     16:37    Daglengte: 8:35 Dinsdag 26 Jan
00:00 0.8° 1003.8 hPa 4.7 m/s 77.6 mm 0.8° 1003.1 hPa 4.9 m/s 0.8° 1011.1 hPa 2.2 m/s 77.6 mm
06:00 5.9° 999.0 hPa 5.8 m/s 81.0 mm 6.3° 998.6 hPa 5.9 m/s 0.9° 1003.0 hPa 4.2 m/s 81.0 mm
12:00 5.5° 999.3 hPa 3.8 m/s 83.5 mm 5.4° 999.5 hPa 3.8 m/s 6.3° 997.5 hPa 4.2 m/s 83.5 mm
18:00 6.2° 992.9 hPa 3.7 m/s 83.6 mm 6.2° 992.4 hPa 3.6 m/s 5.9° 998.0 hPa 4.4 m/s 83.6 mm
 08:00     16:39    Daglengte: 8:39 Woensdag 27 Jan
00:00 8.8° 991.6 hPa 9.0 m/s 83.7 mm 9.1° 991.1 hPa 9.5 m/s 5.4° 996.7 hPa 4.0 m/s 83.7 mm
06:00 7.6° 992.5 hPa 9.4 m/s 85.1 mm 7.6° 992.3 hPa 9.6 m/s 7.0° 995.1 hPa 7.4 m/s 85.1 mm
12:00 8.2° 998.3 hPa 10.0 m/s 85.2 mm 8.3° 998.0 hPa 10.3 m/s 6.7° 1001.3 hPa 6.2 m/s 85.2 mm
18:00 4.9° 1002.3 hPa 4.5 m/s 85.2 mm 5.0° 1001.8 hPa 4.6 m/s 4.2° 1007.4 hPa 3.7 m/s 85.2 mm
 07:59     16:41    Daglengte: 8:42 Donderdag 28 Jan
00:00 3.8° 1003.1 hPa 3.0 m/s 85.2 mm 3.9° 1002.5 hPa 3.1 m/s 2.3° 1009.3 hPa 1.3 m/s 85.2 mm
06:00 4.1° 1005.6 hPa 4.9 m/s 85.2 mm 4.3° 1005.4 hPa 5.2 m/s 1.5° 1007.8 hPa 2.1 m/s 85.2 mm
12:00 4.2° 1010.8 hPa 3.6 m/s 85.3 mm 4.2° 1010.8 hPa 3.6 m/s 85.3 mm
18:00 4.7° 997.4 hPa 1.0 m/s 2.4 mm
 07:57     16:43    Daglengte: 8:46 Vrijdag 29 Jan
00:00 4.0° 998.2 hPa 0.8 m/s 2.2 mm
06:00 3.5° 999.2 hPa 1.6 m/s 1.1 mm
12:00 5.2° 1000.6 hPa 1.9 m/s 1.0 mm
18:00 4.2° 1000.5 hPa 2.3 m/s 1.7 mm
 07:56     16:45    Daglengte: 8:49 Zaterdag 30 Jan
00:00 4.1° 999.7 hPa 3.0 m/s 2.2 mm
06:00 4.3° 998.1 hPa 3.7 m/s 1.2 mm
12:00 5.9° 998.1 hPa 3.5 m/s 0.8 mm
18:00 4.6° 997.6 hPa 2.2 m/s 0.6 mm
 07:54     16:46    Daglengte: 8:52 Zondag 31 Jan
00:00 3.7° 998.4 hPa 1.3 m/s 0.8 mm
06:00 3.5° 997.9 hPa 1.4 m/s 1.5 mm
12:00 4.7° 1000.2 hPa 2.8 m/s 1.1 mm
18:00 3.3° 1001.0 hPa 2.1 m/s 0.4 mm
 07:52     16:48    Daglengte: 8:56 Maandag 01 Feb
00:00 2.8° 1001.6 hPa 2.7 m/s 0.9 mm
06:00 2.4° 1000.8 hPa 2.7 m/s 0.5 mm
12:00 4.9° 1002.0 hPa 3.6 m/s 0.4 mm
18:00 3.2° 1002.9 hPa 2.0 m/s 0.3 mm
 07:50     16:50    Daglengte: 9:00 Dinsdag 02 Feb
00:00 2.5° 1004.2 hPa 2.3 m/s 0.6 mm
06:00 2.1° 1004.2 hPa 2.1 m/s 0.5 mm
12:00 5.0° 1005.5 hPa 2.9 m/s 0.6 mm
18:00 3.3° 1006.2 hPa 2.0 m/s 0.5 mm
FMI Hirlam - 7.5 km EWN WRFDA - 12 km DWD ICON - 7 km GFS - 25 km Basiskaart






























































Updatetijd (Europe/Brussels) Resolutie Lengte Stap
FMI Hirlam 18:15, 00:15, 06:15, 12:15 7.5 km 49h 1h
EWN WRFDA 21:30, 03:30, 09:30, 15:30 12 km 73h 1h
DWD ICON 22:45, 04:45, 10:45, 16:45 7 km 75h 1h
GFS 18:45, 00:45, 06:45, 12:45 25 km 237h 3h
30+ mm
25-30 mm
20-25 mm
15-20 mm
10-15 mm
6-10 mm
4-6 mm
2-4 mm
1-2 mm
0.5-1 mm
0.2-0.5 mm
0.1-0.2 mm
30+ mm
25-30 mm
20-25 mm
15-20 mm
10-15 mm
6-10 mm
4-6 mm
2-4 mm
1-2 mm
0.5-1 mm
0.2-0.5 mm
0.1-0.2 mm
Sneeuwval
Natte sneeuw
Hagel
Vorst
30+ mm
25-30 mm
20-25 mm
15-20 mm
10-15 mm
6-10 mm
4-6 mm
2-4 mm
1-2 mm
0.5-1 mm
0.2-0.5 mm
0.1-0.2 mm
Sneeuwval
Natte sneeuw
Hagel
Vorst
Onweer
50 mm
40 mm
30 mm
26 mm
22 mm
18 mm
14 mm
10 mm
9 mm
8 mm
7 mm
6 mm
5 mm
4.5 mm
4 mm
3.5 mm
3 mm
2.5 mm
2 mm
1.5 mm
1 mm
0.8 mm
0.6 mm
0.4 mm
0.2 mm
0.05 mm
35°
30°
25°
20°
15°
10°
-5°
-10°
-15°
-20°
-25°
-30°
-35°
33> m/s
29 m/s
25 m/s
21 m/s
17 m/s
14 m/s
11 m/s
8 m/s
5 m/s
3 m/s
0 m/s
2600 J/kg
2400 J/kg
2200 J/kg
2000 J/kg
1800 J/kg
1600 J/kg
1400 J/kg
1200 J/kg
1000 J/kg
800 J/kg
600 J/kg
400 J/kg
200 J/kg
70 dBZ
65 dBZ
60 dBZ
55 dBZ
50 dBZ
45 dBZ
40 dBZ
35 dBZ
30 dBZ
25 dBZ
20 dBZ
15 dBZ
10 dBZ
5 dBZ
-1 K
-2 K
-3 K
-4 K
-5 K
-6 K
-7 K
-8 K
-9 K
950 m²/s²
900 m²/s²
850 m²/s²
800 m²/s²
750 m²/s²
700 m²/s²
650 m²/s²
600 m²/s²
550 m²/s²
500 m²/s²
450 m²/s²
400 m²/s²
350 m²/s²
300 m²/s²
250 m²/s²
200 m²/s²
150 m²/s²
100 m²/s²
46 m/s
44 m/s
42 m/s
40 m/s
38 m/s
36 m/s
34 m/s
32 m/s
30 m/s
28 m/s
26 m/s
24 m/s
22 m/s
20 m/s
16 m/s
12 m/s
8 m/s
4 m/s
30 m/s
28 m/s
26 m/s
24 m/s
22 m/s
20 m/s
18 m/s
16 m/s
14 m/s
12 m/s
10 m/s
8 m/s
6 m/s
4 m/s
2 m/s
3.0
2.8
2.6
2.4
2.2
2.0
1.8
1.6
1.4
1.2
1.0
0.8
0.6
0.4
0.2
15
14
13
12
11
10
9
8
7
6
5
4
3
2
1
90%
80%
70%
60%
50%
40%
30%
20%
10%
42
40
38
36
34
32
30
28
26
24
22
20
18
16
14
12
90+ cm
80-90 cm
70-80 cm
60-70 cm
50-60 cm
40-50 cm
30-40 cm
20-30 cm
10-20 cm
1-10 cm
Sneeuwval
Natte sneeuw